Terminal Aerodrome Forecast
Issued by NWS St Louis, MO

Home | Current Version | Previous Version | Text Only | Print | Product List | Glossary On
Versions: 1 2 3 4 5 6 7 8 9 10 11 12 13 14 15 16 17 18 19
000
FTUS43 KLSX 231100
TAFCOU
TAF
KCOU 231127Z 2312/2412 10007KT P6SM SCT250
     FM231500 13012KT P6SM BKN120
     FM232100 14014G22KT P6SM BKN120=

USA.gov is the U.S. government's official web portal to all federal, state and local government web resources and services.